Flag Weather past 2 weeks in Cochabamba, Bolivia

Now
68 °F

Broken clouds.


Feels Like: 68 °F
Forecast: 56 / 76 °F
Wind: 3 mph from Southeast

Location: Cochabamba Airport

Current Time: Nov 28, 2014 at 11:13:08 AM

Latest Report: Nov 28, 2014 at 10:00 AM


Visibility: N/A

Pressure: 30.33 "Hg

Humidity: 46%

Dew point: 46 °F

Location of CochabambaLocation

Historic Weather in Cochabamba — Graph

°F

Cochabamba temperature yesterday

Maximum temperature yesterday: 81 °F (at 2:00 PM)
Minimum temperature yesterday: 55 °F (at 10:00 PM)
Average temperature yesterday: 66 °F

Past Weeks' High & Low Weather Summary

 TemperatureHumidityPressure
High86 °F (Nov 25, 3:00 PM)94% (Nov 14, 6:00 AM)30.45 "Hg (Nov 14, 6:00 AM)
Low52 °F (Nov 16, 5:00 AM)8% (Nov 19, 3:00 PM)29.95 "Hg (Nov 24, 4:00 PM)
Average67 °F49%30.20 "Hg
* Reported Nov 13 10:00 AM — Nov 28 10:00 AM, Cochabamba, Weather by CustomWeather, © 2014

Note: Actual official high and low records may vary slightly from our data, if they occured in-between our weather recording intervals... More about our weather records

Advertising

Cochabamba weather history for previous 24 hours

 ConditionsComfort  
Time TempWeatherWind HumidityBarometerVisibility
10:00 AM
Nov 28
68 °FBroken clouds.3 mph46%30.33 "HgN/A
9:00 AM64 °FPartly sunny.No wind60%30.33 "Hg5 mi
8:00 AM59 °FPartly sunny.No wind72%30.33 "Hg2 mi
7:00 AM57 °FPartly sunny.No wind72%30.33 "Hg2 mi
6:00 AM54 °FBroken clouds.3 mph88%30.33 "Hg1 mi
5:00 AM54 °FPassing clouds.No wind88%30.30 "Hg5 mi
4:00 AM52 °FPassing clouds.No wind88%30.27 "Hg5 mi
3:00 AM54 °FPassing clouds.No wind88%30.27 "HgN/A
2:00 AM55 °FPassing clouds.No wind82%30.30 "HgN/A
1:00 AM55 °FPassing clouds.No wind82%30.33 "HgN/A
11:00 PM
Nov 27
57 °FPassing clouds.3 mph72%30.36 "HgN/A
10:00 PM55 °FPassing clouds.3 mph88%30.33 "HgN/A
9:00 PM57 °FPassing clouds.5 mph77%30.33 "HgN/A
8:00 PM57 °FPartly cloudy.7 mph77%30.33 "HgN/A
7:00 PM57 °FScattered showers. Partly cloudy.13 mph77%30.30 "Hg4 mi
6:00 PM63 °FLight rain. Broken clouds.14 mph64%30.21 "Hg5 mi
5:00 PM66 °FSprinkles. Broken clouds.12 mph52%30.15 "Hg5 mi
4:00 PM73 °FBroken clouds.13 mph31%30.12 "HgN/A
3:00 PM77 °FBroken clouds.16 mph34%30.12 "HgN/A
2:00 PM81 °FScattered clouds.5 mph26%30.15 "HgN/A
1:00 PM79 °FPassing clouds.7 mph28%30.21 "HgN/A
12:00 PM77 °FScattered clouds.8 mph32%30.24 "HgN/A
11:00 AM72 °FScattered clouds.3 mph44%30.30 "HgN/A
Weather by CustomWeather, © 2014

See weather overviewHow to use our weather pages